Location: *
(51.2167°N, 10.0667°E)
Time: 15:55:49
(UTC+00:00)

Daily predictions for brighter satellites

Satellite Brightness Start Highest point End
(mag) Time Altitude Azimuth Time Altitude Azimuth Time Altitude Azimuth
Cosmos 1862 Rocket 4.3 15:47:39 10° SSE 15:51:32 32° E 15:55:28 10° NNE
Meteor 1-10 Rocket 4.4 15:46:13 10° S 15:51:37 55° E 15:57:08 10° NNE
ISS -1.2 15:49:11 10° W 15:51:59 25° SSW 15:54:47 10° SSE
Exosat Rocket 4.2 15:48:54 10° S 15:53:38 38° ESE 15:58:19 10° NE
STARLINK-67 2.7 15:51:09 10° W 15:53:54 60° N 15:56:38 10° ENE
USA 215 3.7 15:49:48 10° ENE 15:56:08 50° SE 16:02:27 10° SSW
Cosmos 1269 Rocket 4.4 15:51:55 10° SW 15:57:12 66° WNW 16:02:30 10° NNE
Cosmos 1980 4.3 15:53:01 10° S 15:58:13 39° ESE 16:03:26 10° NE
Meteor 1-11 Rocket 3.9 15:58:10 10° N 16:04:10 72° ENE 16:10:06 10° SSE
Cosmos 2297 4.1 15:59:05 10° NNW 16:04:33 43° NE 16:09:55 10° ESE
Okean O Rocket 1.9 16:01:42 10° S 16:06:02 72° WSW 16:10:24 10° NNW
STARLINK-46 2.4 16:03:39 10° WSW 16:06:17 85° SSE 16:08:41 12° ENE
Cosmos 1707 Rocket 3.7 16:02:10 10° S 16:06:38 87° W 16:11:09 10° N
Cosmos 1441 Rocket 4.3 16:04:10 10° N 16:07:19 23° ENE 16:10:25 10° ESE
Meteor 1-27 Rocket 4.1 16:02:28 10° SSE 16:07:58 48° E 16:13:36 10° NNE
H-2A R/B 3.0 16:07:21 10° SE 16:10:49 41° ENE 16:14:19 10° N
COBE Rocket 4.5 16:07:46 10° NNE 16:12:00 33° E 16:16:14 10° SSE
Cosmos 2242 Rocket 4.3 16:09:08 10° SSE 16:13:17 35° E 16:17:27 10° NNE
Helios 1A Rocket 3.5 16:09:27 10° S 16:13:31 62° WSW 16:17:34 10° NNW
Meteor 1-28 Rocket 4.5 16:10:29 10° N 16:14:03 41° WNW 16:17:37 10° SW
COSMOS 2455 4.3 16:10:16 10° W 16:15:25 28° NNW 16:20:37 10° NNE
Cosmos 1689 Rocket 2.4 16:13:19 10° N 16:16:22 70° WNW 16:19:22 10° SSW
Genesis I 3.1 16:17:03 10° NW 16:20:58 72° NE 16:24:49 10° SE
COSMOS 2428 3.0 16:16:50 10° SW 16:22:31 71° WNW 16:28:15 10° NNE
Cosmos 1908 Rocket 3.7 16:19:26 10° N 16:23:43 49° ENE 16:27:57 10° SSE
Cosmos 2251 Rocket 3.5 16:20:30 10° SSW 16:25:46 73° ESE 16:31:03 10° NNE
NOSS 3-1 (C) 4.4 16:19:55 10° NW 16:26:23 40° NNE 16:33:24 12° E
CZ-4B R/B 3.1 16:23:11 10° N 16:26:24 34° WNW 16:29:34 10° SW
Cosmos 1666 2.8 16:23:34 10° N 16:27:13 48° ENE 16:30:50 10° SSE
Okean-O 2.9 16:23:39 10° SE 16:27:50 43° ENE 16:32:03 10° N
RESURS DK-1 2.9 16:26:06 10° SW 16:30:09 57° NW 16:34:16 10° NNE
COSMO-SKYMED 1 4.0 16:28:54 16° ENE 16:30:32 19° E 16:33:38 10° SE
Envisat 3.2 16:25:52 10° SE 16:30:42 46° ENE 16:35:33 10° N
NOAA 12 4.2 16:26:43 10° SE 16:31:53 55° ENE 16:37:02 10° N
USA 267 3.6 16:25:49 10° SE 16:32:22 72° SW 16:38:55 10° WNW
Okean 1-7 3.9 16:30:11 10° SSE 16:33:53 28° E 16:36:59 13° NE
CZ-4B R/B 4.5 16:30:05 10° S 16:35:10 44° W 16:40:24 10° NNW
USA 229 DEB 4.3 16:29:38 10° NW 16:36:18 42° NNE 16:42:15 14° E
USA 229 4.3 16:29:44 10° NW 16:36:23 42° NNE 16:42:17 14° E
YAOGAN 1 3.6 16:35:31 10° ESE 16:39:01 24° ENE 16:42:32 10° N
Cosmos 407 Rocket 4.4 16:34:53 10° SSE 16:39:14 28° E 16:41:58 18° ENE
Feng Yun 1-1 Rocket 4.2 16:35:05 10° SSE 16:40:29 87° WSW 16:45:57 10° NNW
NOSS 3-4 (A) 4.1 16:35:09 10° WSW 16:41:04 48° NNW 16:46:38 14° NE
NOSS 3-4 (C) 4.1 16:35:15 10° WSW 16:41:11 49° NNW 16:46:44 14° NE
NOSS 3-1 (A) 4.5 16:35:08 10° NW 16:41:27 37° NNE 16:46:46 18° E
Cosmos 1536 2.9 16:37:50 10° NNW 16:41:53 80° W 16:45:52 10° S
Cosmos 2278 Rocket 3.5 16:37:02 10° NW 16:42:23 44° WSW 16:47:42 10° S
Nadezhda 4 Rocket 4.0 16:37:46 10° S 16:44:06 83° E 16:50:26 10° NNE
Cosmos 1733 Rocket 4.3 16:41:11 10° NNW 16:45:22 45° W 16:49:34 10° SSW
Cosmos 2360 Rocket 3.9 16:41:58 10° W 16:46:37 25° NW 16:51:17 10° NNE
Cosmos 1553 Rocket 4.4 16:44:40 10° N 16:50:41 41° ENE 16:56:43 10° SE
Lacrosse 5 rocket 1.5 16:49:11 10° WSW 16:53:26 66° NNW 16:55:35 26° NE
Cosmos 2369 Rocket 2.8 16:48:50 10° NNW 16:53:58 35° NE 16:57:14 19° E
AQUARIUS 4.4 16:50:05 10° S 16:54:34 71° WSW 16:59:05 10° NNW
Cosmos 1980 Rocket 4.4 16:53:54 10° NNW 16:55:11 11° N 16:56:28 10° N
SMAP 3.5 16:50:39 10° S 16:55:17 65° WSW 16:59:57 10° NNW
YAOGAN 6 2.8 16:53:26 10° SE 16:56:51 45° ENE 17:00:19 10° N
Cosmos 1743 2.9 16:55:05 10° N 16:58:51 48° ENE 17:02:36 10° SSE
Cosmos 921 Rocket 2.9 16:54:40 10° NNW 16:58:57 79° ENE 17:03:18 10° SSE
SL-4 R/B 1.8 16:55:43 10° W 16:59:30 83° N 17:01:17 32° E
FengYun 1-2 T 4.2 16:54:09 10° SSE 16:59:32 61° ENE 17:04:59 10° N
SL-16 R/B 2.6 16:56:06 10° S 17:01:27 44° ESE 17:04:31 24° NE
Cosmos 2344 4.4 16:54:52 10° NW 17:03:24 53° NNE 17:12:24 18° E
Okean 1 3.8 17:01:14 10° SSE 17:04:55 37° E 17:05:31 35° ENE
Aureole 1 Rocket 2.1 17:02:15 10° SSW 17:05:14 67° ESE 17:06:13 40° NE
FALCON 9 DEB 3.6 17:02:21 10° SW 17:05:43 48° SSE 17:06:35 38° ESE
Cosmos 2026 Rocket 3.9 16:59:49 10° S 17:05:43 58° E 17:11:41 10° NNE
Cosmos 1867 3.5 17:00:19 10° NW 17:05:49 77° NE 17:11:17 10° SE
NOSS 0 Rocket 4.2 17:03:01 10° SW 17:09:13 68° NW 17:14:34 15° NNE
Cosmos 2237 Rocket 2.4 17:04:46 10° SW 17:10:27 74° WNW 17:15:04 16° NNE
CZ-4 R/B 1.3 17:09:36 10° SSE 17:13:24 56° ENE 17:17:11 10° N
Cosmos 1812 4.3 17:09:57 10° SW 17:13:31 35° WNW 17:17:07 10° N
Ariane Rocket 4.0 17:15:01 26° NE 17:15:01 26° NE 17:18:17 10° N
ATLAS 5 CENTAUR R/B 1.2 17:12:13 10° SW 17:13:53 47° SSW 17:13:53 47° SSW
Cosmos 2333 Rocket 3.5 17:09:03 10° WSW 17:14:19 35° NW 17:19:21 11° NNE
SeaSat 1 3.8 17:16:08 22° NNE 17:16:08 22° NNE 17:19:24 10° N
Cosmos 2322 Rocket 4.4 17:12:48 10° NW 17:15:43 14° NNW 17:18:38 10° N
Cosmos 1782 Rocket 3.5 17:14:20 10° NNW 17:18:42 85° W 17:23:03 10° S
SKYMED 2 3.7 17:17:33 35° NE 17:19:01 51° E 17:23:14 10° S
ATLAS 2AS CENTAUR R/B 3.9 17:12:07 10° W 17:19:35 40° NNW 17:24:35 20° NE
Cosmos 2219 Rocket 3.6 17:15:27 10° WSW 17:20:29 32° NW 17:25:14 12° NNE
Cosmos 1417 Rocket 4.4 17:16:20 10° N 17:22:25 62° ENE 17:28:30 10° SSE
Lacrosse 4 Rocket 3.5 17:20:23 10° N 17:21:30 13° N 17:21:30 13° N
Cosmos 1943 Rocket 2.2 17:18:50 10° NNW 17:24:27 59° NE 17:27:53 23° SE
SL-16 R/B 4.5 17:23:27 10° NW 17:25:50 13° NNW 17:28:14 10° N
Okean 2 Rocket 3.1 17:23:03 10° N 17:27:29 57° ENE 17:31:54 10° SSE
STARLINK-67 3.6 17:25:37 10° WNW 17:27:38 42° WNW 17:27:38 42° WNW
Sich 1 Rocket 3.5 17:25:01 10° N 17:29:27 87° W 17:33:50 10° S
Meteor 1-19 Rocket 4.3 17:24:21 10° SSE 17:29:35 47° E 17:31:03 38° NE
Cosmos 2221 Rocket 4.0 17:27:35 10° SSE 17:31:09 42° ESE 17:31:09 42° ESE
Cosmos 1703 Rocket 3.8 17:28:10 10° SSW 17:32:38 70° WNW 17:36:21 15° N
STARLINK-52 3.4 17:30:38 10° SW 17:33:53 58° S 17:33:53 58° S
Cosmos 1975 2.6 17:30:24 10° N 17:34:25 76° E 17:38:25 10° SSE
Cosmos 1190 Rocket 3.9 17:29:18 10° S 17:34:25 65° ESE 17:36:02 42° NE
Meteor 1-12 Rocket 4.4 17:29:32 10° N 17:35:18 52° ENE 17:40:55 10° SSE
Cosmos 676 Rocket 4.3 17:31:58 10° S 17:36:36 43° ESE 17:36:36 43° ESE
CSL-04 Rocket 3.5 17:33:08 10° SSE 17:38:24 80° ENE 17:43:45 10° NNW
Cosmos 1627 Rocket 4.5 17:32:54 10° SSW 17:39:01 81° W 17:45:14 10° N
USA 215 3.3 17:36:17 34° NE 17:39:25 76° NNW 17:45:57 10° WSW
STARLINK-60 3.5 17:38:42 10° WSW 17:41:33 60° WSW 17:41:33 60° WSW
STARLINK-29 3.6 17:38:43 10° WSW 17:41:45 59° SSW 17:41:45 59° SSW
Lacrosse 5 3.9 17:40:02 10° SSE 17:41:13 14° SSE 17:41:13 14° SSE
Cosmos 1954 Rocket 4.3 17:39:27 10° S 17:43:50 45° SE 17:43:50 45° SE
Cosmos 1655 Rocket 3.9 17:43:21 10° S 17:49:32 62° E 17:53:06 26° NNE
Cosmos 614 Rocket 3.9 17:45:04 10° SSW 17:50:09 83° WNW 17:51:51 43° NNE
USA 116 4.3 17:51:38 50° NE 17:53:00 73° ESE 17:58:04 10° S
Cosmos 2263 4.2 17:49:52 10° NNW 17:55:38 63° NE 17:56:10 60° E
Cosmos 1174 4.0 17:52:38 10° SW 17:57:14 74° WNW 17:57:14 74° WNW
CSL-04 Debris 4.3 17:52:07 10° S 17:57:34 74° WSW 18:03:01 10° NNW
IRS-1A Rocket 4.3 18:01:43 61° ENE 18:01:51 61° ENE 18:07:42 10° N
COSMO-SKYMED 1 3.1 18:06:07 46° NNW 18:07:03 57° WNW 18:11:18 10° SSW
BREEZE-M R/B 4.0 18:05:16 10° W 18:08:34 34° WSW 18:08:34 34° WSW
Cosmos 1140 Rocket 3.4 18:06:52 10° SSW 18:12:00 81° WNW 18:12:14 78° NNW
Meteor 2-13 Rocket 4.3 18:06:01 10° S 18:12:05 84° E 18:14:11 44° NNE
YAOGAN 1 3.6 18:10:44 10° S 18:14:54 46° W 18:19:05 10° NNW
NOSS 3-1 (C) 3.9 18:10:50 10° NW 18:18:09 88° NE 18:20:52 48° SE
Cosmos 407 Rocket 4.1 18:15:52 10° SW 18:20:58 52° WNW 18:22:12 43° NNW
S3M 4.3 18:18:17 10° NNW 18:24:26 63° W 18:30:28 10° S
USA 229 DEB 3.8 18:20:44 10° NW 18:27:58 83° SW 18:29:44 56° SSE
USA 229 3.8 18:20:50 10° NW 18:28:03 83° SW 18:29:47 57° SSE
CZ-4C R/B 4.1 18:27:16 10° S 18:28:04 15° S 18:28:04 15° S
Lacrosse 5 rocket 3.4 18:29:16 10° WNW 18:31:14 23° NW 18:31:14 23° NW
NOSS 3-1 (A) 3.8 18:26:07 10° NW 18:33:25 80° NE 18:34:15 72° E
Cosmos 2266 Rocket 4.1 18:28:32 10° S 18:33:58 66° S 18:33:58 66° S
Cosmos 2369 Rocket 2.8 18:32:47 10° NW 18:38:16 54° WSW 18:39:07 50° SW
SL-4 R/B 4.1 18:35:14 10° W 18:36:53 24° W 18:36:53 24° W
SL-16 R/B 3.2 18:40:17 10° WSW 18:45:39 41° NW 18:46:25 39° NNW
CZ-4 R/B 4.2 18:46:23 10° SW 18:48:47 16° W 18:51:10 10° NW
SeaSat 1 4.4 18:55:55 22° NNW 18:55:55 22° NNW 18:57:36 10° NNW
Cosmos 2237 Rocket 4.2 18:51:17 10° W 18:55:32 21° NW 18:56:54 19° NNW
Cosmos 1943 Rocket 3.9 19:03:06 10° NW 19:07:52 29° WSW 19:09:31 24° SW
ATLAS 2AS CENTAUR R/B 4.0 19:05:31 10° NW 19:12:00 33° N 19:12:00 33° N
Cosmos 2344 4.5 19:09:17 10° NW 19:18:46 71° SW 19:22:29 49° SSE
USA 215 4.0 19:23:38 45° NW 19:23:38 45° NW 19:28:27 10° WNW
